Starlink 30100

operational
NORAD ID: 57623 Int'l Des: 2023-119 Owner: SPXS Country: US Constellation: starlink
LEOCIRCULAR

Starlink 30100について

説明を読み込み中...

リアルタイム位置

3D地球を読み込み中...

次回通過

高度履歴

Altitude vs Time

uPlot chart will show altitude changes over time

軌道要素

1 57623U 23119X 26061.58335648 .00088255 00000-0 56029-2 0 9998
2 57623 43.0008 120.3852 0002111 288.7454 120.9916 15.07874122 5734
Epoch: Mar 2, 2026 • Age: 26 hours

現在のステータス

高度 549.7 km
速度 7.59 km/s
衛星直下点 -31.75°S, 118.76°W
打ち上げ日 Aug 11, 2023
運用期間 2.5 years
タイプ internet

技術仕様

分類 Payload
質量 730.00 kg
乾燥質量 700.00 kg
総質量 730.00 kg
長さ 0.30 m
直径 4.10 m
スパン 29.00 m
形状 Box + pan
製造者 SPXS
バスタイプ Starlink V2M
フェーズステータス In Orbit
所有者/国 SPXS/US

大規模コンステレーション

Loading constellations...